OE-11213 Weather Reports


time (UTC)temp
F
wind
direction
speed
knots
gust
knots
rain 1hr
in
rain 24hr
in
rain mn
in
humidity
%
barometer
mb
20260903111144 77 117 1.7 8.7 0.00 0.00 0.00 52 1018.7
20260903110531 77 123 2.6 6.1 0.00 0.00 0.00 51 1018.9
20260903105531 76 151 1.7 5.2 0.00 0.00 0.00 55 1019.1
20260903104144 76 118 1.7 5.2 0.00 0.00 0.00 56 1019.3
20260903103531 75 101 1.7 4.3 0.00 0.00 0.00 56 1019.4
20260903102531 75 124 2.6 5.2 0.00 0.00 0.00 55 1019.9
20260903101144 74 134 2.6 5.2 0.00 0.00 0.00 57 1020.0
20260903100531 74 126 3.5 6.1 0.00 0.00 0.00 58 1020.0
20260903095531 73 195 1.7 4.3 0.00 0.00 0.00 61 1020.3
20260903094143 73 135 2.6 4.3 0.00 0.00 0.00 62 1020.5
20260903093531 73 160 1.7 5.2 0.00 0.00 0.00 62 1020.6
20260903091144 71 87 1.7 4.3 0.00 0.00 0.00 64 1021.1
20260903090531 72 252 0.9 5.2 0.00 0.00 0.00 63 1021.0
20260903085530 71 328 1.7 7.0 0.00 0.00 0.00 65 1021.4
20260903084143 70 318 3.5 7.0 0.00 0.00 0.00 68 1021.5
20260903083531 70 258 1.7 5.2 0.00 0.00 0.00 66 1021.5
20260903082531 70 247 2.6 6.1 0.00 0.00 0.00 69 1021.5
20260903081144 69 235 0.9 5.2 0.00 0.00 0.00 69 1021.6
20260903080531 69 305 3.5 7.0 0.00 0.00 0.00 71 1021.8
20260903075531 69 284 3.5 8.7 0.00 0.00 0.00 71 1021.9
20260903074144 68 283 0.9 5.2 0.00 0.00 0.00 73 1022.0
20260903073530 67 249 0.9 7.0 0.00 0.00 0.00 75 1022.0
20260903072530 65 205 2.6 5.2 0.00 0.00 0.00 80 1022.4
20260903071144 65 243 3.5 7.8 0.00 0.00 0.00 79 1022.3
20260903070531 65 280 2.6 7.8 0.00 0.00 0.00 78 1022.4
20260903065531 64 246 1.7 7.0 0.00 0.00 0.00 82 1022.6
20260903064143 64 247 2.6 5.2 0.00 0.00 0.00 83 1022.6
20260903063530 63 223 4.3 7.0 0.00 0.00 0.00 85 1022.7
20260903062531 63 239 3.5 7.0 0.00 0.00 0.00 86 1022.5
20260903061144 63 230 2.6 4.3 0.00 0.00 0.00 87 1022.5
20260903060531 61 204 2.6 5.2 0.00 0.00 0.00 90 1022.5
20260903055530 62 248 1.7 4.3 0.00 0.00 0.00 88 1022.4
20260903054143 62 258 1.7 5.2 0.00 0.00 0.00 89 1022.4
20260903053531 61 284 2.6 7.8 0.00 0.00 0.00 91 1022.5
20260903052531 60 212 2.6 7.0 0.00 0.00 0.00 94 1022.3
20260903051144 60 211 3.5 5.2 0.00 0.00 0.00 94 1022.3
20260903050530 60 225 0.9 3.5 0.00 0.00 0.00 93 1022.3
20260903045531 60 318 3.5 7.0 0.00 0.00 0.00 93 1022.3
20260903044143 60 283 2.6 5.2 0.00 0.00 0.00 92 1022.0
20260903043530 60 237 2.6 5.2 0.00 0.00 0.00 93 1022.0
20260903042531 61 234 2.6 6.1 0.00 0.00 0.00 92 1021.9
20260903041143 61 214 2.6 5.2 0.00 0.00 0.00 93 1021.9
20260903040531 61 212 2.6 7.0 0.00 0.00 0.00 93 1021.8
20260903035531 61 233 3.5 6.1 0.00 0.00 0.00 93 1021.8
20260903034530 61 267 2.6 7.0 0.00 0.00 0.00 92 1021.7
20260903033530 61 207 2.6 6.1 0.00 0.00 0.00 93 1021.8
20260903032531 61 197 2.6 5.2 0.00 0.00 0.00 94 1021.8
20260903031144 61 207 2.6 4.3 0.00 0.00 0.00 93 1021.8
20260903030531 61 205 1.7 2.6 0.00 0.00 0.00 92 1021.7
20260903025531 61 216 1.7 3.5 0.00 0.00 0.00 93 1021.7
20260903024531 61 210 2.6 4.3 0.00 0.00 0.00 93 1021.7
20260903023531 62 220 2.6 5.2 0.00 0.00 0.00 91 1021.7
20260903022531 62 219 2.6 4.3 0.00 0.00 0.00 91 1021.7
20260903021143 62 235 2.6 5.2 0.00 0.00 0.00 90 1021.8
20260903020531 62 235 3.5 5.2 0.00 0.00 0.00 91 1021.9
20260903015531 62 223 3.5 6.1 0.00 0.00 0.00 91 1021.9
20260903014143 62 219 3.5 5.2 0.00 0.00 0.00 91 1021.9
20260903013530 61 193 1.7 4.3 0.00 0.00 0.00 92 1021.8
20260903012530 62 235 2.6 4.3 0.00 0.00 0.00 90 1021.8
20260903011144 62 230 3.5 5.2 0.00 0.00 0.00 89 1021.6
20260903010531 62 230 3.5 5.2 0.00 0.00 0.00 90 1021.6
20260903005531 62 207 2.6 5.2 0.00 0.00 0.00 89 1021.6
20260903004144 62 198 2.6 3.5 0.00 0.00 0.00 89 1021.7
20260903003531 63 219 1.7 4.3 0.00 0.00 0.00 87 1021.6
20260903002531 63 196 1.7 3.5 0.00 0.00 0.00 87 1021.6
20260903001543 63 239 2.6 5.2 0.00 0.00 0.00 86 1021.7
20260903000530 63 219 1.7 3.5 0.00 0.00 0.00 88 1021.7
20260902235530 63 252 2.6 5.2 0.00 0.00 0.00 87 1021.7
20260902234144 62 218 3.5 5.2 0.00 0.00 0.00 89 1021.8
20260902233530 62 207 2.6 5.2 0.00 0.00 0.00 89 1021.7
20260902232530 63 210 2.6 5.2 0.00 0.00 0.00 87 1021.6
20260902231531 63 219 2.6 5.2 0.00 0.00 0.00 87 1021.6
20260902230530 63 215 3.5 5.2 0.00 0.00 0.00 85 1021.4
20260902225531 64 201 2.6 5.2 0.00 0.00 0.00 84 1021.5
20260902224144 64 224 2.6 6.1 0.00 0.00 0.00 84 1021.3
20260902223531 64 216 5.2 7.8 0.00 0.00 0.00 84 1021.1
20260902222531 65 240 5.2 9.6 0.00 0.00 0.00 85 1021.0
20260902221144 65 246 5.2 9.6 0.00 0.00 0.00 85 1020.9
20260902220530 65 242 5.2 11.3 0.00 0.09 0.00 85 1020.7
20260902215530 65 233 4.3 10.4 0.00 0.19 0.00 85 1020.9
20260902214144 64 216 5.2 8.7 0.00 0.21 0.00 84 1020.8
20260902213530 65 232 5.2 9.6 0.00 0.21 0.00 83 1020.6
20260902211144 66 283 2.6 8.7 0.00 0.21 0.00 81 1020.3
20260902210531 65 241 1.7 4.3 0.00 0.21 0.00 80 1020.3
20260902205531 65 68 0.9 6.1 0.00 0.21 0.00 80 1020.3
20260902204145 65 200 4.3 7.8 0.00 0.21 0.00 82 1020.3
20260902203530 66 198 5.2 9.6 0.00 0.21 0.00 83 1020.0
20260902202531 67 231 5.2 10.4 0.00 0.21 0.00 79 1020.2
20260902201144 67 269 5.2 13.0 0.00 0.21 0.00 74 1020.0
20260902200531 67 262 3.5 11.3 0.00 0.21 0.00 79 1020.1
20260902195531 66 206 2.6 4.3 0.00 0.21 0.00 88 1020.1
20260902194144 67 209 1.7 4.3 0.00 0.21 0.00 86 1020.0
20260902193531 68 171 2.6 3.5 0.00 0.21 0.00 88 1019.8
20260902192530 69 73 2.6 5.2 0.00 0.21 0.00 84 1019.6
20260902191144 70 13 2.6 6.1 0.00 0.21 0.00 81 1019.4
20260902190530 69 249 1.7 4.3 0.00 0.21 0.00 84 1019.4
20260902185531 70 185 1.7 3.5 0.00 0.21 0.00 82 1019.4
20260902184144 70 195 2.6 3.5 0.00 0.21 0.00 80 1018.9
20260902183531 70 196 3.5 7.8 0.00 0.21 0.00 81 1018.7
20260902182531 71 205 2.6 5.2 0.00 0.21 0.00 80 1018.7
20260902181144 72 127 0.9 2.6 0.00 0.21 0.00 75 1018.3
20260902180531 73 237 2.6 3.5 0.00 0.21 0.00 69 1018.3
20260902175531 73 173 1.7 3.5 0.00 0.21 0.00 67 1018.1
20260902174144 73 85 1.7 5.2 0.00 0.21 0.00 67 1018.1
20260902173530 73 52 3.5 5.2 0.00 0.21 0.00 66 1017.9
20260902172531 73 99 1.7 4.3 0.00 0.21 0.00 67 1017.6
20260902171144 74 55 3.5 7.0 0.00 0.21 0.00 66 1017.6
20260902170531 74 55 4.3 7.8 0.00 0.21 0.00 65 1017.4
20260902165531 75 90 3.5 8.7 0.00 0.21 0.00 62 1016.9
20260902164144 75 97 3.5 7.8 0.00 0.21 0.00 63 1017.1
20260902163531 75 125 4.3 7.8 0.00 0.21 0.00 62 1017.0
20260902162531 75 127 5.2 9.6 0.00 0.21 0.00 63 1016.9
20260902161144 76 130 4.3 9.6 0.00 0.21 0.00 64 1016.9
20260902160530 76 111 3.5 7.8 0.00 0.21 0.00 63 1017.0
20260902155531 76 132 4.3 7.8 0.00 0.21 0.00 63 1016.9
20260902154144 76 136 4.3 8.7 0.00 0.21 0.00 63 1016.9
20260902153531 76 141 4.3 7.8 0.00 0.21 0.00 60 1016.9
20260902152530 77 137 4.3 8.7 0.00 0.21 0.00 62 1016.8
20260902151144 77 127 4.3 7.0 0.00 0.21 0.00 61 1016.9
20260902150531 76 142 3.5 7.0 0.00 0.21 0.00 63 1017.0
20260902145531 76 134 3.5 7.0 0.00 0.21 0.00 61 1017.1
20260902144144 76 139 4.3 7.0 0.00 0.21 0.00 62 1017.1
20260902143530 75 127 3.5 7.8 0.00 0.21 0.00 62 1017.4
20260902142531 76 129 4.3 8.7 0.00 0.21 0.00 59 1017.3
20260902141144 76 124 4.3 7.8 0.00 0.21 0.00 59 1017.4
20260902140531 76 116 4.3 7.8 0.00 0.21 0.00 58 1017.6
20260902135531 76 117 4.3 7.8 0.00 0.21 0.00 59 1017.7
20260902134143 76 129 3.5 7.0 0.00 0.21 0.00 57 1017.6
20260902133531 76 122 4.3 7.8 0.00 0.21 0.00 57 1017.7
20260902132531 77 130 4.3 7.8 0.00 0.21 0.00 57 1017.7
20260902131144 76 140 3.5 7.8 0.00 0.21 0.00 58 1018.0
20260902130531 77 140 3.5 7.0 0.00 0.21 0.00 55 1018.1
20260902125531 77 139 2.6 7.0 0.00 0.21 0.00 56 1018.2
20260902124143 76 141 2.6 8.7 0.00 0.21 0.00 58 1018.5
20260902123531 76 143 2.6 6.1 0.00 0.21 0.00 59 1018.8
20260902122531 75 134 3.5 7.0 0.00 0.21 0.00 57 1018.9
20260902121144 75 159 2.6 5.2 0.00 0.21 0.00 57 1019.1
20260902120530 74 147 4.3 7.0 0.00 0.21 0.00 57 1019.2
20260902115530 75 145 3.5 8.7 0.00 0.21 0.00 60 1019.2
20260902114144 75 156 3.5 7.8 0.00 0.21 0.00 63 1019.4
20260902113531 74 139 3.5 7.0 0.00 0.21 0.00 61 1019.7
20260902112531 74 122 2.6 6.1 0.00 0.21 0.00 64 1020.0